This is the latest recevied weather packets stored in our database for station/object DL9LAF-4. If no packets are shown the sender has not sent any weather packets the latest 10 day(s).
| Time | Temp. | Humidity | Pressure | Rain* | Wind** | Luminosity | Snow |
|---|---|---|---|---|---|---|---|
| 1777416352 | 6.11° C | 57% | 1007.2 hPa | 0 mm | - | - | - |
| 1777415752 | 6.11° C | 56% | 1007.2 hPa | 0 mm | - | - | - |
| 1777415152 | 6.67° C | 55% | 1007 hPa | 0 mm | - | - | - |
| 1777414552 | 6.67° C | 55% | 1007 hPa | 0 mm | - | - | - |
| 1777413952 | 6.67° C | 54% | 1006.9 hPa | 0 mm | - | - | - |
| 1777413352 | 7.22° C | 54% | 1006.7 hPa | 0 mm | - | - | - |
| 1777412752 | 7.22° C | 53% | 1006.7 hPa | 0 mm | - | - | - |
| 1777412152 | 7.22° C | 53% | 1006.7 hPa | 0 mm | - | - | - |
| 1777411552 | 7.78° C | 52% | 1006.7 hPa | 0 mm | - | - | - |
| 1777410952 | 7.78° C | 51% | 1006.7 hPa | 0 mm | - | - | - |
| 1777410352 | 7.78° C | 50% | 1006.5 hPa | 0 mm | - | - | - |
| 1777409752 | 8.33° C | 50% | 1006.5 hPa | 0 mm | - | - | - |
| 1777409152 | 8.33° C | 49% | 1006.4 hPa | 0 mm | - | - | - |
| 1777408552 | 8.89° C | 49% | 1006.5 hPa | 0 mm | - | - | - |
| 1777407952 | 8.89° C | 48% | 1006.5 hPa | 0 mm | - | - | - |
| 1777407352 | 8.89° C | 48% | 1006.5 hPa | 0 mm | - | - | - |
| 1777406752 | 9.44° C | 47% | 1006.5 hPa | 0 mm | - | - | - |
| 1777406152 | 9.44° C | 46% | 1006.2 hPa | 0 mm | - | - | - |
| 1777405552 | 10° C | 45% | 1006.2 hPa | 0 mm | - | - | - |
| 1777404952 | 10.56° C | 44% | 1006.4 hPa | 0 mm | - | - | - |
| 1777404352 | 10.56° C | 43% | 1006.4 hPa | 0 mm | - | - | - |
| 1777403752 | 11.67° C | 42% | 1006.2 hPa | 0 mm | - | - | - |
| 1777403152 | 12.22° C | 40% | 1006 hPa | 0 mm | - | - | - |
| 1777402552 | 13.33° C | 39% | 1006.2 hPa | 0 mm | - | - | - |
| 1777401952 | 13.89° C | 38% | 1006 hPa | 0 mm | - | - | - |
* Rain latest hour (hover to see other rain measurements)
** Current wind speed in m/s (hover to see current wind gust speed)